Date,TemperatureHighF,TemperatureAvgF,TemperatureLowF,DewpointHighF,DewpointAvgF,DewpointLowF,HumidityHigh,HumidityAvg,HumidityLow,PressureMaxIn,PressureMinIn,WindSpeedMaxMPH,WindSpeedAvgMPH,GustSpeedMaxMPH,PrecipitationSumIn
2014-3-28,58.0,54.5,51.0,51.0,46.5,29.0,84,75,41,27.14,27.03,30,14,48,0.01
2014-3-29,57.0,49.6,34.0,52.0,46.7,33.0,98,90,80,27.10,27.01,20,11,29,0.48
2014-3-30,50.0,36.7,28.0,36.0,26.8,-99.9,97,76,40,27.17,27.01,17,8,29,0.02
2014-3-31,64.0,54.4,43.0,29.0,25.1,18.0,51,34,21,27.21,27.14,14,6,15,0.01
2014-4-1,71.0,60.9,58.0,39.0,24.8,-99.9,36,27,17,27.19,27.12,21,15,26,0.00
2014-4-2,73.0,66.9,60.0,47.0,37.3,22.0,50,35,20,27.20,27.11,21,10,27,0.00
2014-4-3,64.0,61.2,58.0,53.0,51.2,47.0,82,70,54,27.13,27.10,19,12,25,0.00
2014-5-13,71.0,70.0,68.0,63.0,60.5,59.0,83,72,66,27.23,27.20,9,7,13,0.22
2014-5-14,76.0,69.7,61.0,61.0,57.0,53.0,88,65,47,27.22,27.03,23,11,32,0.07
2014-5-15,62.0,51.2,44.0,59.0,49.3,42.0,98,93,84,27.12,27.01,19,10,29,0.22
2014-5-16,51.0,45.6,42.0,44.0,38.8,31.0,96,78,49,27.16,27.05,14,7,26,0.02
2014-5-17,50.0,46.9,45.0,46.0,39.0,32.0,96,75,56,27.25,27.14,16,9,22,0.01
2014-5-18,58.0,49.8,46.0,51.0,44.4,-99.9,96,86,69,27.27,27.22,9,4,20,0.00
2014-5-27,74.0,69.2,64.0,65.0,62.4,60.0,93,79,65,27.24,27.15,16,10,21,0.02
2014-5-28,79.0,69.9,65.0,66.0,61.3,58.0,88,75,57,27.19,27.11,15,8,18,0.02
2014-5-29,76.0,70.4,67.0,65.0,61.0,58.0,89,72,65,27.19,27.12,9,2,15,0.00
2014-5-30,73.0,69.5,68.0,66.0,62.9,61.0,89,80,75,27.22,27.15,12,3,15,0.00
2014-5-31,78.0,70.9,66.0,67.0,63.1,60.0,85,77,60,27.23,27.17,8,4,13,0.00
2014-6-1,75.0,64.2,64.0,63.0,49.9,-99.9,78,68,66,27.31,27.23,14,7,25,0.00
2014-6-2,73.0,66.3,61.0,62.0,58.1,53.0,81,75,68,27.30,27.21,17,7,26,0.00
2014-6-3,72.0,65.6,62.0,65.0,60.3,55.0,91,83,78,27.23,27.13,16,8,20,0.00
2014-6-4,75.0,69.4,66.0,67.0,64.4,62.0,94,84,70,27.14,26.98,19,10,33,0.28
2014-6-5,68.0,66.1,64.0,67.0,64.7,63.0,98,96,94,27.03,26.99,33,16,42,0.28
2014-6-6,74.0,67.3,62.0,65.0,63.0,61.0,98,87,69,27.08,27.02,7,3,12,0.02
2014-6-7,77.0,70.5,65.0,65.0,62.2,60.0,88,76,63,27.13,27.04,13,4,19,0.01
2014-6-8,72.0,64.1,60.0,65.0,56.4,-99.9,96,82,70,27.07,26.99,17,11,24,0.08
2014-6-9,69.0,63.6,59.0,63.0,58.9,54.0,89,85,77,27.07,27.02,12,6,22,0.08
2014-6-10,77.0,68.1,59.0,66.0,61.2,57.0,96,79,63,27.08,27.01,28,14,50,0.23
2014-6-11,70.0,66.2,63.0,64.0,60.8,57.0,94,83,67,27.03,26.94,17,12,26,0.37
2014-6-12,69.0,63.5,61.0,64.0,60.8,59.0,97,91,84,27.04,26.97,10,6,15,0.06
2014-6-13,70.0,63.9,59.0,64.0,60.8,57.0,97,90,81,27.08,27.01,20,5,34,0.33
2014-6-14,74.0,65.0,59.0,65.0,61.3,58.0,98,89,64,27.17,27.09,8,5,17,0.02
2014-6-15,78.0,68.5,68.0,68.0,56.4,-99.9,94,76,51,27.26,27.16,15,8,19,0.24
2014-6-16,81.0,72.7,68.0,70.0,64.5,63.0,87,76,63,27.33,27.25,9,4,12,0.05
2014-6-17,80.0,73.9,70.0,68.0,65.0,63.0,83,74,60,27.33,27.24,13,7,17,0.04
2014-6-18,78.0,74.1,69.0,70.0,66.1,60.0,91,76,64,27.30,27.22,11,7,19,0.12
2014-6-19,76.0,72.5,71.0,70.0,65.5,63.0,87,79,72,27.29,27.23,14,7,16,0.13
2014-6-20,77.0,72.0,69.0,68.0,64.0,60.0,80,76,73,27.22,27.13,11,6,13,0.01
2014-6-21,76.0,71.0,67.0,67.0,65.5,64.0,92,83,71,27.14,27.05,10,6,15,0.12
2014-6-22,76.0,65.0,66.0,68.0,51.9,-99.9,91,76,64,27.11,27.03,7,3,12,0.12
2014-6-23,80.0,74.1,70.0,68.0,64.1,61.0,88,71,65,27.16,27.06,12,6,16,0.03
2014-6-24,71.0,69.0,67.0,64.0,63.0,62.0,91,81,74,27.19,27.11,17,8,21,0.13
2014-6-25,72.0,67.0,64.0,67.0,64.3,63.0,98,92,83,27.18,27.08,20,12,27,0.04
2014-6-26,77.0,69.7,67.0,65.0,62.8,61.0,88,79,62,27.20,27.11,9,4,11,0.01
2014-6-27,75.0,69.8,67.0,66.0,64.1,63.0,89,82,74,27.20,27.14,9,4,15,0.04
2014-6-28,68.0,67.0,66.0,66.0,65.0,64.0,96,92,86,27.29,27.22,11,6,9,0.85
2014-6-29,70.0,55.2,68.0,65.0,31.2,-99.9,87,67,81,27.32,27.23,12,11,14,0.85
2014-6-30,72.0,68.3,65.0,69.0,65.3,63.0,97,91,85,27.21,27.13,14,9,18,0.00
2014-7-3,73.0,69.4,65.0,67.0,62.8,55.0,97,80,65,27.17,27.11,11,6,21,0.00
2014-7-4,72.0,66.5,58.0,59.0,56.2,52.0,92,71,58,27.29,27.24,8,6,14,0.00
2014-7-5,76.0,69.1,62.0,60.0,56.1,49.0,72,63,52,27.34,27.28,11,4,26,0.00
2014-7-6,77.0,63.3,66.0,59.0,40.0,-99.9,68,55,53,27.28,27.17,11,6,12,0.00
2014-7-7,77.0,70.8,68.0,64.0,61.3,59.0,80,72,61,27.18,27.12,16,14,21,0.00
2014-7-8,74.0,71.5,68.0,67.0,65.5,61.0,90,81,75,27.15,27.08,22,18,33,0.28
2014-7-9,69.0,66.7,62.0,65.0,64.3,60.0,94,92,83,27.16,27.10,20,15,25,0.65
2014-7-10,76.0,69.8,66.0,69.0,65.4,59.0,95,86,64,27.23,27.14,10,5,13,0.02
2014-7-11,79.0,74.2,69.0,68.0,63.0,59.0,82,69,54,27.31,27.22,6,4,11,0.00
2014-7-12,77.0,73.1,72.0,70.0,66.2,65.0,84,79,75,27.33,27.28,10,4,11,0.00
2014-7-13,76.0,73.2,72.0,69.0,66.1,64.0,81,78,77,27.25,27.17,16,12,20,0.00
2014-7-14,75.0,71.9,70.0,70.0,67.4,65.0,91,85,80,27.17,27.04,23,14,42,0.06
2014-7-15,70.0,66.6,64.0,67.0,63.5,58.0,97,90,80,27.08,27.01,14,8,22,0.43
2014-7-16,67.0,63.4,60.0,57.0,54.1,52.0,80,72,65,27.09,27.02,12,8,20,0.09
2014-7-17,73.0,64.5,61.0,58.0,53.2,50.0,71,67,60,27.16,27.09,9,6,18,0.00
2014-7-18,67.0,64.8,62.0,62.0,59.2,55.0,95,83,66,27.24,27.16,18,7,23,0.46
2014-7-19,68.0,63.5,61.0,67.0,62.0,60.0,98,96,87,27.21,27.13,14,8,22,0.88
2014-7-20,72.0,60.9,64.0,69.0,57.6,62.0,97,88,80,27.16,27.13,11,8,12,0.45
2014-7-21,75.0,72.2,70.0,70.0,67.4,65.0,89,84,79,27.22,27.14,10,4,13,0.02
2014-7-22,76.0,71.1,67.0,71.0,68.1,66.0,97,90,76,27.27,27.20,8,4,12,0.02
2014-7-23,75.0,70.5,68.0,71.0,67.0,65.0,94,88,82,27.24,27.13,10,7,14,0.51
2014-7-24,74.0,68.6,67.0,70.0,67.0,65.0,98,95,86,27.13,27.08,12,8,26,0.84
2014-7-25,74.0,67.5,60.0,67.0,61.6,59.0,98,83,69,27.16,27.10,9,6,10,0.01
2014-7-26,76.0,69.6,67.0,66.0,61.2,58.0,78,75,70,27.18,27.14,13,9,17,0.00
2014-7-27,78.0,64.4,68.0,70.0,59.6,64.0,91,76,77,27.17,27.01,28,16,40,0.69
2014-7-28,69.0,66.8,65.0,67.0,64.2,60.0,97,91,80,27.08,27.03,8,7,18,1.36
2014-7-29,67.0,60.6,57.0,57.0,56.2,55.0,95,86,68,27.12,27.07,7,5,13,0.00
2014-7-30,68.0,61.3,56.0,58.0,53.1,50.0,84,75,64,27.19,27.16,6,3,14,0.00
2014-7-31,69.0,53.0,64.0,64.0,46.6,53.0,84,77,67,27.21,27.17,10,5,12,0.00
2014-8-1,75.0,70.7,66.0,66.0,63.2,61.0,83,77,71,27.21,27.14,5,2,9,0.00
2014-8-2,74.0,69.4,64.0,67.0,64.5,62.0,96,85,73,27.22,27.16,6,4,8,0.01
2014-8-3,73.0,69.6,64.0,66.0,61.1,58.0,88,75,65,27.23,27.18,7,4,12,0.09
2014-8-4,74.0,70.7,66.0,64.0,59.7,56.0,79,69,59,27.23,27.16,15,5,17,0.00
2014-8-5,77.0,71.6,68.0,66.0,61.6,59.0,83,71,57,27.21,27.16,5,4,9,0.00
2014-8-6,76.0,72.6,69.0,67.0,62.8,58.0,80,72,66,27.18,27.12,11,6,15,0.00
2014-8-7,79.0,74.7,71.0,70.0,66.5,64.0,81,75,69,27.17,27.12,13,5,17,0.00
2014-8-8,75.0,70.3,65.0,69.0,64.3,59.0,97,82,58,27.19,27.12,18,8,23,1.00
2014-8-11,77.0,71.1,67.0,70.0,67.7,64.0,95,89,80,27.14,27.04,15,9,22,0.26
2014-8-12,73.0,68.3,66.0,69.0,64.7,60.0,98,89,79,27.08,27.01,19,9,22,0.27
2014-8-13,66.0,61.6,56.0,60.0,57.0,54.0,95,85,79,27.17,27.06,13,7,21,0.21
2014-8-14,72.0,65.9,60.0,63.0,57.9,53.0,84,75,67,27.19,27.12,14,4,22,0.00
2014-8-15,74.0,69.7,65.0,63.0,60.0,57.0,79,72,65,27.18,27.13,5,3,11,0.00
2014-8-16,74.0,69.6,65.0,66.0,61.3,55.0,84,75,66,27.19,27.12,8,3,10,0.00
2014-8-17,75.0,70.7,67.0,68.0,64.3,61.0,93,80,70,27.16,27.08,14,10,19,0.00
2014-8-24,80.0,72.4,71.0,73.0,67.4,67.0,95,82,67,27.15,27.07,5,3,11,0.04
2014-8-25,76.0,70.0,65.0,68.0,65.2,61.0,96,85,69,27.22,27.16,16,4,24,0.00
2014-8-26,75.0,67.8,63.0,66.0,62.5,60.0,95,84,71,27.28,27.19,9,4,12,0.00
2014-8-27,76.0,71.9,66.0,66.0,62.3,57.0,85,72,60,27.24,27.17,11,4,14,0.00
2014-8-28,80.0,76.1,70.0,71.0,66.7,59.0,80,73,64,27.20,27.14,5,3,9,0.00
2014-8-29,81.0,76.1,73.0,69.0,66.1,61.0,81,71,61,27.23,27.16,15,5,19,0.00
2014-8-30,79.0,75.0,70.0,68.0,65.0,60.0,90,72,60,27.27,27.20,22,9,34,0.11
2014-9-6,77.0,71.8,66.0,71.0,66.8,64.0,95,84,76,27.23,27.12,11,4,22,0.11
2014-9-7,75.0,67.8,65.0,69.0,64.2,63.0,96,86,79,27.19,27.12,11,5,21,0.03
2014-9-8,77.0,70.5,65.0,69.0,65.9,63.0,96,86,75,27.20,27.14,14,4,17,0.02
2014-9-9,74.0,69.0,65.0,69.0,66.1,64.0,98,91,78,27.24,27.16,10,4,16,0.00
2014-9-10,74.0,69.6,65.0,67.0,63.6,61.0,90,81,73,27.21,27.09,17,9,22,0.00
2014-9-11,76.0,69.5,66.0,70.0,66.0,62.0,98,89,77,27.18,27.12,18,12,25,0.56
2014-9-12,74.0,69.3,66.0,70.0,67.3,65.0,98,94,84,27.21,27.14,6,3,10,0.56
2014-9-13,68.0,61.4,55.0,67.0,60.6,54.0,100,98,98,27.28,27.16,12,6,17,0.11
2014-9-14,66.0,60.6,54.0,64.0,59.2,53.0,99,93,85,27.29,27.23,9,4,21,0.05
2014-9-15,69.0,64.8,62.0,67.0,63.6,61.0,98,96,89,27.29,27.22,10,5,13,0.02
2014-11-13,31.0,27.6,21.0,31.0,26.6,20.0,98,96,94,27.16,27.11,4,0,5,0.01
2014-11-14,23.0,19.4,15.0,21.0,17.4,13.0,94,91,82,27.24,27.13,0,0,0,0.00
2014-11-15,35.0,27.1,17.0,23.0,17.4,12.0,84,64,56,27.29,27.19,12,2,16,0.01
2014-11-16,50.0,40.3,35.0,47.0,30.9,17.0,94,70,44,27.20,27.04,23,11,30,0.15
2014-11-17,50.0,35.0,15.0,49.0,33.6,13.0,97,95,90,27.06,27.01,24,12,34,0.57
2014-11-18,21.0,16.8,14.0,13.0,8.3,5.0,92,70,54,27.23,27.05,12,8,20,0.01
2014-11-19,38.0,25.8,17.0,21.0,11.9,6.0,64,55,45,27.23,27.09,27,19,36,0.00
2014-11-20,42.0,37.8,35.0,29.0,24.6,21.0,68,59,50,27.22,27.11,26,16,32,0.00
2014-11-21,46.0,37.8,28.0,23.0,20.2,15.0,68,50,37,27.39,27.23,14,5,19,0.00
2014-11-22,53.0,46.5,43.0,43.0,27.6,22.0,72,46,38,27.39,27.20,15,7,21,0.00
2014-11-23,59.0,54.6,49.0,52.0,48.2,42.0,89,79,73,27.19,27.01,27,16,45,0.11
2014-11-24,62.0,56.2,45.0,51.0,44.6,35.0,81,66,50,27.03,26.71,34,20,49,0.05
2014-11-25,48.0,43.1,39.0,34.0,27.8,25.0,70,55,41,27.14,27.05,16,5,22,0.01
2014-11-26,42.0,37.7,33.0,30.0,27.1,22.0,83,67,46,27.06,26.98,23,8,32,0.00
2014-11-27,35.0,28.1,22.0,31.0,26.7,18.0,96,94,85,27.30,26.95,16,8,26,0.00
2014-11-28,36.0,26.9,20.0,24.0,20.1,18.0,93,77,55,27.33,27.18,12,5,14,0.04
2014-11-29,51.0,45.9,34.0,42.0,35.7,19.0,72,64,50,27.20,27.11,30,22,40,0.01
2014-11-30,57.0,53.4,50.0,48.0,45.3,41.0,89,74,60,27.31,27.13,27,20,37,0.00
2014-12-1,56.0,54.5,54.0,54.0,50.5,45.0,94,86,72,27.40,27.31,22,16,28,0.00
2014-12-2,55.0,53.3,52.0,52.0,51.4,51.0,97,94,88,27.33,27.25,19,15,25,0.12
2014-12-3,55.0,51.1,47.0,50.0,48.0,45.0,97,89,79,27.32,27.22,21,13,32,0.02
2014-12-4,56.0,52.6,48.0,52.0,48.7,45.0,91,86,80,27.33,27.27,16,11,19,0.01
2014-12-5,57.0,55.1,52.0,52.0,49.9,46.0,91,83,68,27.36,27.24,22,13,28,0.01
2014-12-6,55.0,46.6,36.0,52.0,44.9,34.0,98,93,77,27.32,27.12,25,14,37,0.45
2014-12-7,43.0,33.7,31.0,34.0,32.1,29.0,98,94,58,27.39,27.29,13,9,25,0.01
2014-12-8,43.0,38.8,36.0,31.0,26.9,21.0,83,62,41,27.30,27.16,12,4,16,0.00
2014-12-9,36.0,33.2,30.0,34.0,31.4,29.0,97,93,85,27.15,27.05,17,9,22,0.00
2014-12-10,30.0,25.8,27.0,29.0,24.4,24.0,97,87,87,27.16,27.09,9,6,15,0.00
2014-12-11,33.0,27.3,24.0,24.0,21.4,19.0,91,77,60,27.21,27.07,7,4,11,0.00
2014-12-12,45.0,36.9,29.0,24.0,19.0,10.0,73,50,28,27.31,27.21,9,4,12,0.00
2014-12-13,41.0,36.8,33.0,31.0,27.5,22.0,89,70,49,27.26,27.16,8,4,10,0.00
2014-12-14,35.0,28.0,26.0,31.0,26.0,24.0,96,88,76,27.17,27.07,20,7,24,0.00
2014-12-15,54.0,50.7,43.0,44.0,30.8,24.0,79,47,32,27.05,27.01,17,13,21,0.00
2014-12-16,50.0,41.7,36.0,47.0,39.8,35.0,97,93,81,27.16,26.93,24,14,35,0.11
2014-12-17,36.0,34.0,32.0,35.0,32.7,29.0,97,95,91,27.22,27.14,9,3,14,0.01
2014-12-18,37.0,33.4,30.0,32.0,26.9,16.0,93,77,44,27.16,27.10,8,4,12,0.00
2014-12-19,37.0,34.0,30.0,28.0,24.2,18.0,79,67,57,27.17,27.12,9,5,15,0.00
2014-12-20,39.0,30.3,34.0,34.0,25.0,23.0,96,79,58,27.20,27.10,8,2,13,0.00
2014-12-21,44.0,40.2,36.0,38.0,34.6,30.0,85,80,77,27.21,27.08,8,3,11,0.00
2014-12-22,54.0,47.9,42.0,48.0,42.1,36.0,92,80,68,27.08,27.01,18,6,24,0.11
2014-12-23,59.0,52.4,48.0,54.0,49.5,47.0,97,90,78,0.00,40.00,19,12,31,0.54
2014-12-24,59.0,50.2,36.0,54.0,47.5,35.0,97,90,80,26.88,26.63,27,15,37,0.74
2014-12-25,41.0,35.4,32.0,35.0,31.8,29.0,97,87,73,27.24,27.01,16,7,26,0.07
2014-12-26,51.0,45.1,40.0,36.0,29.6,16.0,75,57,25,27.31,27.22,13,5,16,0.00
2014-12-27,54.0,46.6,41.0,35.0,28.9,21.0,72,49,29,27.30,27.15,16,8,20,0.00
2014-12-28,54.0,48.0,45.0,50.0,45.3,34.0,98,92,51,27.14,27.06,20,9,25,0.15
2014-12-29,46.0,42.2,34.0,45.0,41.3,34.0,98,98,98,27.16,27.07,10,5,13,0.43
2014-12-30,37.0,30.8,26.0,36.0,30.5,25.0,98,98,97,27.39,27.14,9,3,13,0.31
2014-12-31,29.0,25.7,23.0,28.0,24.0,14.0,97,93,63,27.40,27.31,0,0,0,0.01
2015-1-1,38.0,32.8,26.0,28.0,20.7,9.0,88,61,42,27.31,27.21,19,10,24,0.01
2015-1-2,47.0,40.7,35.0,46.0,38.0,23.0,100,91,57,27.31,27.23,15,9,20,0.00